contact:dominique.lefevre@mio.osupytheas.fr, maurice.libes@osupytheas.fr, didier.mallarino@osupytheas.fr
Project:EMSO http://www.emso-fr.org/EMSO-France
Depth: 2436.0 m
Title:EMSO Ligure Ouest : Data MII capteur MICROCAT
DateTime_Computer,Latitude,Longitude,Temperature,Conductivity,Pressure,DateTime_Instrument
DateTime_Computer,Latitude,Longitude,degC,S m-1,dbar,DateTime_Instrument
2021-10-18T00:01:38Z,42.805,6.029,13.2987,4.60006,2470.404,2021-10-18T02:03:02Z
2021-10-18T00:04:41Z,42.805,6.029,13.2984,4.60004,2470.376,2021-10-18T02:06:05Z
2021-10-18T00:07:44Z,42.805,6.029,13.2988,4.60005,2470.437,2021-10-18T02:09:08Z
2021-10-18T00:10:47Z,42.805,6.029,13.2988,4.60006,2470.413,2021-10-18T02:12:11Z
2021-10-18T00:13:50Z,42.805,6.029,13.2987,4.60004,2470.39,2021-10-18T02:15:14Z
2021-10-18T00:16:53Z,42.805,6.029,13.2988,4.60004,2470.404,2021-10-18T02:18:17Z
2021-10-18T00:19:57Z,42.805,6.029,13.2988,4.60004,2470.413,2021-10-18T02:21:20Z
2021-10-18T00:23:00Z,42.805,6.029,13.2990,4.60006,2470.413,2021-10-18T02:24:23Z
2021-10-18T00:26:03Z,42.805,6.029,13.2986,4.60006,2470.39,2021-10-18T02:27:27Z
2021-10-18T00:29:06Z,42.805,6.029,13.2988,4.60005,2470.413,2021-10-18T02:30:30Z
2021-10-18T00:32:09Z,42.805,6.029,13.2983,4.60005,2470.45,2021-10-18T02:33:33Z
2021-10-18T00:35:12Z,42.805,6.029,13.2990,4.60004,2470.39,2021-10-18T02:36:36Z
2021-10-18T00:38:15Z,42.805,6.029,13.2990,4.60006,2470.404,2021-10-18T02:39:39Z
2021-10-18T00:41:18Z,42.805,6.029,13.2991,4.60005,2470.404,2021-10-18T02:42:42Z
2021-10-18T00:44:22Z,42.805,6.029,13.2986,4.60006,2470.39,2021-10-18T02:45:45Z
2021-10-18T00:47:25Z,42.805,6.029,13.2986,4.60005,2470.413,2021-10-18T02:48:48Z
2021-10-18T00:50:28Z,42.805,6.029,13.2991,4.60005,2470.413,2021-10-18T02:51:52Z
2021-10-18T00:53:31Z,42.805,6.029,13.2989,4.60004,2470.427,2021-10-18T02:54:55Z
2021-10-18T00:56:34Z,42.805,6.029,13.2990,4.60005,2470.413,2021-10-18T02:57:58Z
2021-10-18T00:59:37Z,42.805,6.029,13.2990,4.60005,2470.413,2021-10-18T03:01:01Z
2021-10-18T01:02:40Z,42.805,6.029,13.2987,4.60005,2470.413,2021-10-18T03:04:04Z
2021-10-18T01:05:43Z,42.805,6.029,13.2990,4.60004,2470.413,2021-10-18T03:07:07Z
2021-10-18T01:08:47Z,42.805,6.029,13.2984,4.60004,2470.437,2021-10-18T03:10:10Z
2021-10-18T01:11:50Z,42.805,6.029,13.2987,4.60007,2470.45,2021-10-18T03:13:13Z
2021-10-18T01:14:53Z,42.805,6.029,13.2987,4.60003,2470.427,2021-10-18T03:16:16Z
2021-10-18T01:17:56Z,42.805,6.029,13.2988,4.60006,2470.437,2021-10-18T03:19:20Z
2021-10-18T01:20:59Z,42.805,6.029,13.2988,4.60003,2470.427,2021-10-18T03:22:23Z
2021-10-18T01:24:02Z,42.805,6.029,13.2986,4.60004,2470.413,2021-10-18T03:25:26Z
2021-10-18T01:27:05Z,42.805,6.029,13.2986,4.60006,2470.474,2021-10-18T03:28:29Z
2021-10-18T01:30:08Z,42.805,6.029,13.2991,4.60005,2470.413,2021-10-18T03:31:32Z
2021-10-18T01:33:12Z,42.805,6.029,13.2987,4.60006,2470.39,2021-10-18T03:34:35Z
2021-10-18T01:36:15Z,42.805,6.029,13.2989,4.60004,2470.46,2021-10-18T03:37:38Z
2021-10-18T01:39:18Z,42.805,6.029,13.2989,4.60004,2470.45,2021-10-18T03:40:41Z
2021-10-18T01:42:21Z,42.805,6.029,13.2988,4.60004,2470.413,2021-10-18T03:43:45Z
2021-10-18T01:45:24Z,42.805,6.029,13.2990,4.60004,2470.46,2021-10-18T03:46:48Z
2021-10-18T01:48:27Z,42.805,6.029,13.2990,4.60004,2470.45,2021-10-18T03:49:51Z
2021-10-18T01:51:30Z,42.805,6.029,13.2985,4.60005,2470.427,2021-10-18T03:52:54Z
2021-10-18T01:54:33Z,42.805,6.029,13.2987,4.60005,2470.45,2021-10-18T03:55:57Z
2021-10-18T01:57:37Z,42.805,6.029,13.2988,4.60004,2470.427,2021-10-18T03:59:00Z
2021-10-18T02:00:40Z,42.805,6.029,13.2984,4.60006,2470.413,2021-10-18T04:02:03Z
2021-10-18T02:03:43Z,42.805,6.029,13.2989,4.60006,2470.437,2021-10-18T04:05:06Z
2021-10-18T02:06:46Z,42.805,6.029,13.2990,4.60005,2470.45,2021-10-18T04:08:10Z
2021-10-18T02:09:49Z,42.805,6.029,13.2988,4.60003,2470.413,2021-10-18T04:11:13Z
2021-10-18T02:12:52Z,42.805,6.029,13.2987,4.60003,2470.413,2021-10-18T04:14:16Z
2021-10-18T02:15:55Z,42.805,6.029,13.2989,4.60006,2470.437,2021-10-18T04:17:19Z
2021-10-18T02:18:58Z,42.805,6.029,13.2987,4.60003,2470.474,2021-10-18T04:20:22Z
2021-10-18T02:22:02Z,42.805,6.029,13.2983,4.60004,2470.437,2021-10-18T04:23:25Z
2021-10-18T02:25:05Z,42.805,6.029,13.2990,4.60003,2470.446,2021-10-18T04:26:28Z
2021-10-18T02:28:08Z,42.805,6.029,13.2988,4.60004,2470.45,2021-10-18T04:29:31Z
2021-10-18T02:31:11Z,42.805,6.029,13.2990,4.60004,2470.437,2021-10-18T04:32:35Z
2021-10-18T02:34:14Z,42.805,6.029,13.2986,4.60008,2470.474,2021-10-18T04:35:38Z
2021-10-18T02:37:17Z,42.805,6.029,13.2988,4.60004,2470.46,2021-10-18T04:38:41Z
2021-10-18T02:40:20Z,42.805,6.029,13.2988,4.60006,2470.46,2021-10-18T04:41:44Z
2021-10-18T02:43:23Z,42.805,6.029,13.2990,4.60004,2470.497,2021-10-18T04:44:47Z
2021-10-18T02:46:27Z,42.805,6.029,13.2990,4.60007,2470.474,2021-10-18T04:47:50Z
2021-10-18T02:49:30Z,42.805,6.029,13.2986,4.60003,2470.483,2021-10-18T04:50:53Z
2021-10-18T02:52:33Z,42.805,6.029,13.2989,4.60005,2470.437,2021-10-18T04:53:56Z
2021-10-18T02:55:36Z,42.805,6.029,13.2986,4.60004,2470.483,2021-10-18T04:57:00Z
2021-10-18T02:58:39Z,42.805,6.029,13.2988,4.60008,2470.474,2021-10-18T05:00:03Z
2021-10-18T03:01:42Z,42.805,6.029,13.2988,4.60005,2470.46,2021-10-18T05:03:06Z
2021-10-18T03:04:45Z,42.805,6.029,13.2986,4.60006,2470.483,2021-10-18T05:06:09Z
2021-10-18T03:07:48Z,42.805,6.029,13.2987,4.60005,2470.507,2021-10-18T05:09:12Z
2021-10-18T03:10:52Z,42.805,6.029,13.2989,4.60004,2470.474,2021-10-18T05:12:15Z
2021-10-18T03:13:55Z,42.805,6.029,13.2982,4.60006,2470.497,2021-10-18T05:15:18Z
2021-10-18T03:16:58Z,42.805,6.029,13.2989,4.60004,2470.483,2021-10-18T05:18:21Z
2021-10-18T03:20:01Z,42.805,6.029,13.2986,4.60004,2470.507,2021-10-18T05:21:25Z
2021-10-18T03:23:04Z,42.805,6.029,13.2989,4.60008,2470.497,2021-10-18T05:24:28Z
2021-10-18T03:26:07Z,42.805,6.029,13.2991,4.60004,2470.46,2021-10-18T05:27:31Z
2021-10-18T03:29:10Z,42.805,6.029,13.2986,4.60003,2470.507,2021-10-18T05:30:34Z
2021-10-18T03:32:13Z,42.805,6.029,13.2986,4.60003,2470.507,2021-10-18T05:33:37Z
2021-10-18T03:35:17Z,42.805,6.029,13.2988,4.60004,2470.52,2021-10-18T05:36:40Z
2021-10-18T03:38:20Z,42.805,6.029,13.2984,4.60005,2470.507,2021-10-18T05:39:43Z
2021-10-18T03:41:23Z,42.805,6.029,13.2990,4.60004,2470.483,2021-10-18T05:42:46Z
2021-10-18T03:44:26Z,42.805,6.029,13.2987,4.60004,2470.507,2021-10-18T05:45:50Z
2021-10-18T03:47:29Z,42.805,6.029,13.2990,4.60005,2470.47,2021-10-18T05:48:53Z
2021-10-18T03:50:32Z,42.805,6.029,13.2990,4.60005,2470.53,2021-10-18T05:51:56Z
2021-10-18T03:53:35Z,42.805,6.029,13.2986,4.60007,2470.52,2021-10-18T05:54:59Z
2021-10-18T03:56:38Z,42.805,6.029,13.2991,4.60007,2470.507,2021-10-18T05:58:02Z
2021-10-18T03:59:41Z,42.805,6.029,13.2987,4.60005,2470.544,2021-10-18T06:01:05Z
2021-10-18T04:02:45Z,42.805,6.029,13.2990,4.60006,2470.483,2021-10-18T06:04:08Z
2021-10-18T04:05:48Z,42.805,6.029,13.2990,4.60005,2470.53,2021-10-18T06:07:11Z
2021-10-18T04:08:51Z,42.805,6.029,13.2987,4.60003,2470.544,2021-10-18T06:10:15Z
2021-10-18T04:11:54Z,42.805,6.029,13.2991,4.60003,2470.53,2021-10-18T06:13:18Z
2021-10-18T04:14:57Z,42.805,6.029,13.2986,4.60003,2470.507,2021-10-18T06:16:21Z
2021-10-18T04:18:00Z,42.805,6.029,13.2990,4.60006,2470.544,2021-10-18T06:19:24Z
2021-10-18T04:21:03Z,42.805,6.029,13.2990,4.60003,2470.507,2021-10-18T06:22:27Z
2021-10-18T04:24:06Z,42.805,6.029,13.2987,4.60005,2470.544,2021-10-18T06:25:30Z
2021-10-18T04:27:10Z,42.805,6.029,13.2991,4.60006,2470.53,2021-10-18T06:28:33Z
2021-10-18T04:30:13Z,42.805,6.029,13.2991,4.60007,2470.507,2021-10-18T06:31:36Z
2021-10-18T04:33:16Z,42.805,6.029,13.2988,4.60004,2470.507,2021-10-18T06:34:40Z
2021-10-18T04:36:19Z,42.805,6.029,13.2989,4.60004,2470.53,2021-10-18T06:37:43Z
2021-10-18T04:39:22Z,42.805,6.029,13.2983,4.60005,2470.544,2021-10-18T06:40:46Z
2021-10-18T04:42:25Z,42.805,6.029,13.2991,4.60004,2470.53,2021-10-18T06:43:49Z
2021-10-18T04:45:28Z,42.805,6.029,13.2988,4.60010,2470.553,2021-10-18T06:46:52Z
2021-10-18T04:48:31Z,42.805,6.029,13.2987,4.60006,2470.544,2021-10-18T06:49:55Z
2021-10-18T04:51:35Z,42.805,6.029,13.2988,4.60005,2470.591,2021-10-18T06:52:58Z
2021-10-18T04:54:38Z,42.805,6.029,13.2991,4.60005,2470.553,2021-10-18T06:56:01Z
2021-10-18T04:57:41Z,42.805,6.029,13.2988,4.60005,2470.567,2021-10-18T06:59:04Z
2021-10-18T05:00:44Z,42.805,6.029,13.2990,4.60004,2470.567,2021-10-18T07:02:08Z
2021-10-18T05:03:47Z,42.805,6.029,13.2985,4.60005,2470.553,2021-10-18T07:05:11Z
2021-10-18T05:06:50Z,42.805,6.029,13.2985,4.60006,2470.577,2021-10-18T07:08:14Z
2021-10-18T05:09:53Z,42.805,6.029,13.2990,4.60006,2470.507,2021-10-18T07:11:17Z
2021-10-18T05:12:56Z,42.805,6.029,13.2988,4.60007,2470.53,2021-10-18T07:14:20Z
2021-10-18T05:16:00Z,42.805,6.029,13.2987,4.60005,2470.567,2021-10-18T07:17:23Z
2021-10-18T05:19:03Z,42.805,6.029,13.2987,4.60004,2470.591,2021-10-18T07:20:26Z
2021-10-18T05:22:06Z,42.805,6.029,13.2989,4.60005,2470.567,2021-10-18T07:23:29Z
2021-10-18T05:25:09Z,42.805,6.029,13.2992,4.60005,2470.567,2021-10-18T07:26:33Z
2021-10-18T05:28:12Z,42.805,6.029,13.2990,4.60007,2470.577,2021-10-18T07:29:36Z
2021-10-18T05:31:15Z,42.805,6.029,13.2989,4.60006,2470.53,2021-10-18T07:32:39Z
2021-10-18T05:34:18Z,42.805,6.029,13.2988,4.60003,2470.553,2021-10-18T07:35:42Z
2021-10-18T05:37:21Z,42.805,6.029,13.2988,4.60007,2470.553,2021-10-18T07:38:45Z
2021-10-18T05:40:25Z,42.805,6.029,13.2989,4.60006,2470.577,2021-10-18T07:41:48Z
2021-10-18T05:43:28Z,42.805,6.029,13.2986,4.60007,2470.6,2021-10-18T07:44:51Z
2021-10-18T05:46:31Z,42.805,6.029,13.2992,4.60005,2470.53,2021-10-18T07:47:54Z
2021-10-18T05:49:34Z,42.805,6.029,13.2986,4.60006,2470.581,2021-10-18T07:50:58Z
2021-10-18T05:52:37Z,42.805,6.029,13.2988,4.60004,2470.553,2021-10-18T07:54:01Z
2021-10-18T05:55:40Z,42.805,6.029,13.2990,4.60005,2470.53,2021-10-18T07:57:04Z
2021-10-18T05:58:43Z,42.805,6.029,13.2986,4.60004,2470.553,2021-10-18T08:00:07Z
2021-10-18T06:01:46Z,42.805,6.029,13.2986,4.60006,2470.553,2021-10-18T08:03:10Z
2021-10-18T06:04:50Z,42.805,6.029,13.2985,4.60006,2470.577,2021-10-18T08:06:13Z
2021-10-18T06:07:53Z,42.805,6.029,13.2988,4.60006,2470.567,2021-10-18T08:09:16Z
2021-10-18T06:10:56Z,42.805,6.029,13.2986,4.60006,2470.53,2021-10-18T08:12:19Z
2021-10-18T06:13:59Z,42.805,6.029,13.2987,4.60005,2470.577,2021-10-18T08:15:23Z
2021-10-18T06:17:02Z,42.805,6.029,13.2990,4.60003,2470.553,2021-10-18T08:18:26Z
2021-10-18T06:20:05Z,42.805,6.029,13.2983,4.60005,2470.577,2021-10-18T08:21:29Z
2021-10-18T06:23:08Z,42.805,6.029,13.2990,4.60006,2470.53,2021-10-18T08:24:32Z
2021-10-18T06:26:11Z,42.805,6.029,13.2990,4.60005,2470.553,2021-10-18T08:27:35Z
2021-10-18T06:29:15Z,42.805,6.029,13.2988,4.60009,2470.553,2021-10-18T08:30:38Z
2021-10-18T06:32:18Z,42.805,6.029,13.2991,4.60005,2470.553,2021-10-18T08:33:41Z
2021-10-18T06:35:21Z,42.805,6.029,13.2987,4.60006,2470.539,2021-10-18T08:36:44Z
2021-10-18T06:38:24Z,42.805,6.029,13.2990,4.60006,2470.577,2021-10-18T08:39:48Z
2021-10-18T06:41:27Z,42.805,6.029,13.2990,4.60007,2470.53,2021-10-18T08:42:51Z
2021-10-18T06:44:30Z,42.805,6.029,13.2989,4.60004,2470.553,2021-10-18T08:45:54Z
2021-10-18T06:47:33Z,42.805,6.029,13.2990,4.60006,2470.553,2021-10-18T08:48:57Z
2021-10-18T06:50:36Z,42.805,6.029,13.2989,4.60006,2470.553,2021-10-18T08:52:00Z
2021-10-18T06:53:40Z,42.805,6.029,13.2991,4.60009,2470.544,2021-10-18T08:55:03Z
2021-10-18T06:56:43Z,42.805,6.029,13.2988,4.60006,2470.553,2021-10-18T08:58:06Z
2021-10-18T06:59:46Z,42.805,6.029,13.2990,4.60004,2470.577,2021-10-18T09:01:09Z
2021-10-18T07:02:49Z,42.805,6.029,13.2988,4.60004,2470.553,2021-10-18T09:04:13Z
2021-10-18T07:05:52Z,42.805,6.029,13.2991,4.60006,2470.553,2021-10-18T09:07:16Z
2021-10-18T07:08:55Z,42.805,6.029,13.2990,4.60006,2470.53,2021-10-18T09:10:19Z
2021-10-18T07:11:58Z,42.805,6.029,13.2991,4.60006,2470.591,2021-10-18T09:13:22Z
2021-10-18T07:15:01Z,42.805,6.029,13.2990,4.60007,2470.553,2021-10-18T09:16:25Z
2021-10-18T07:18:04Z,42.805,6.029,13.2991,4.60005,2470.553,2021-10-18T09:19:28Z
2021-10-18T07:21:08Z,42.805,6.029,13.2992,4.60007,2470.53,2021-10-18T09:22:31Z
2021-10-18T07:24:11Z,42.805,6.029,13.2987,4.60005,2470.53,2021-10-18T09:25:34Z
2021-10-18T07:27:14Z,42.805,6.029,13.2986,4.60005,2470.544,2021-10-18T09:28:38Z
2021-10-18T07:30:17Z,42.805,6.029,13.2989,4.60004,2470.544,2021-10-18T09:31:41Z
2021-10-18T07:33:20Z,42.805,6.029,13.2988,4.60006,2470.53,2021-10-18T09:34:44Z
2021-10-18T07:36:23Z,42.805,6.029,13.2991,4.60007,2470.507,2021-10-18T09:37:47Z
2021-10-18T07:39:26Z,42.805,6.029,13.2990,4.60005,2470.53,2021-10-18T09:40:50Z
2021-10-18T07:42:29Z,42.805,6.029,13.2986,4.60005,2470.567,2021-10-18T09:43:53Z
2021-10-18T07:45:33Z,42.805,6.029,13.2991,4.60005,2470.553,2021-10-18T09:46:56Z
2021-10-18T07:48:36Z,42.805,6.029,13.2990,4.60009,2470.567,2021-10-18T09:49:59Z
2021-10-18T07:51:39Z,42.805,6.029,13.2990,4.60007,2470.52,2021-10-18T09:53:03Z
2021-10-18T07:54:42Z,42.805,6.029,13.2990,4.60005,2470.52,2021-10-18T09:56:06Z
2021-10-18T07:57:45Z,42.805,6.029,13.2988,4.60005,2470.567,2021-10-18T09:59:09Z
2021-10-18T08:00:48Z,42.805,6.029,13.2989,4.60005,2470.553,2021-10-18T10:02:12Z
2021-10-18T08:03:51Z,42.805,6.029,13.2990,4.60006,2470.544,2021-10-18T10:05:15Z
2021-10-18T08:06:54Z,42.805,6.029,13.2989,4.60008,2470.553,2021-10-18T10:08:18Z
2021-10-18T08:09:58Z,42.805,6.029,13.2988,4.60006,2470.544,2021-10-18T10:11:21Z
2021-10-18T08:13:01Z,42.805,6.029,13.2991,4.60009,2470.52,2021-10-18T10:14:24Z
2021-10-18T08:16:04Z,42.805,6.029,13.2986,4.60008,2470.567,2021-10-18T10:17:28Z
2021-10-18T08:19:07Z,42.805,6.029,13.2986,4.60006,2470.53,2021-10-18T10:20:31Z
2021-10-18T08:22:10Z,42.805,6.029,13.2988,4.60009,2470.507,2021-10-18T10:23:34Z
2021-10-18T08:25:13Z,42.805,6.029,13.2986,4.60006,2470.53,2021-10-18T10:26:37Z
2021-10-18T08:28:16Z,42.805,6.029,13.2990,4.60006,2470.52,2021-10-18T10:29:40Z
2021-10-18T08:31:19Z,42.805,6.029,13.2991,4.60005,2470.53,2021-10-18T10:32:43Z
2021-10-18T08:34:23Z,42.805,6.029,13.2991,4.60006,2470.52,2021-10-18T10:35:46Z
2021-10-18T08:37:26Z,42.805,6.029,13.2990,4.60009,2470.544,2021-10-18T10:38:49Z
2021-10-18T08:40:29Z,42.805,6.029,13.2991,4.60005,2470.577,2021-10-18T10:41:53Z
2021-10-18T08:43:32Z,42.805,6.029,13.2990,4.60006,2470.507,2021-10-18T10:44:56Z
2021-10-18T08:46:35Z,42.805,6.029,13.2990,4.60004,2470.53,2021-10-18T10:47:59Z
2021-10-18T08:49:38Z,42.805,6.029,13.2991,4.60005,2470.544,2021-10-18T10:51:02Z
2021-10-18T08:52:41Z,42.805,6.029,13.2986,4.60005,2470.507,2021-10-18T10:54:05Z
2021-10-18T08:55:44Z,42.805,6.029,13.2990,4.60006,2470.483,2021-10-18T10:57:08Z
2021-10-18T08:58:48Z,42.805,6.029,13.2987,4.60005,2470.52,2021-10-18T11:00:11Z
2021-10-18T09:01:51Z,42.805,6.029,13.2986,4.60006,2470.52,2021-10-18T11:03:14Z
2021-10-18T09:04:54Z,42.805,6.029,13.2989,4.60007,2470.507,2021-10-18T11:06:18Z
2021-10-18T09:07:57Z,42.805,6.029,13.2988,4.60005,2470.507,2021-10-18T11:09:21Z
2021-10-18T09:11:00Z,42.805,6.029,13.2986,4.60006,2470.507,2021-10-18T11:12:24Z
2021-10-18T09:14:03Z,42.805,6.029,13.2987,4.60007,2470.483,2021-10-18T11:15:27Z
2021-10-18T09:17:06Z,42.805,6.029,13.2991,4.60004,2470.544,2021-10-18T11:18:30Z
2021-10-18T09:20:10Z,42.805,6.029,13.2991,4.60006,2470.483,2021-10-18T11:21:33Z
2021-10-18T09:23:13Z,42.805,6.029,13.2988,4.60005,2470.497,2021-10-18T11:24:36Z
2021-10-18T09:26:16Z,42.805,6.029,13.2991,4.60004,2470.474,2021-10-18T11:27:40Z
2021-10-18T09:29:19Z,42.805,6.029,13.2989,4.60007,2470.507,2021-10-18T11:30:43Z
2021-10-18T09:32:22Z,42.805,6.029,13.2986,4.60005,2470.483,2021-10-18T11:33:46Z
2021-10-18T09:35:25Z,42.805,6.029,13.2988,4.60006,2470.497,2021-10-18T11:36:49Z
2021-10-18T09:38:28Z,42.805,6.029,13.2986,4.60006,2470.507,2021-10-18T11:39:52Z
2021-10-18T09:41:31Z,42.805,6.029,13.2986,4.60005,2470.507,2021-10-18T11:42:55Z
2021-10-18T09:44:35Z,42.805,6.029,13.2987,4.60006,2470.483,2021-10-18T11:45:58Z
2021-10-18T09:47:38Z,42.805,6.029,13.2988,4.60005,2470.497,2021-10-18T11:49:01Z
2021-10-18T09:50:41Z,42.805,6.029,13.2989,4.60006,2470.46,2021-10-18T11:52:05Z
2021-10-18T09:53:44Z,42.805,6.029,13.2989,4.60004,2470.507,2021-10-18T11:55:08Z
2021-10-18T09:56:47Z,42.805,6.029,13.2986,4.60006,2470.46,2021-10-18T11:58:11Z
2021-10-18T09:59:50Z,42.805,6.029,13.2987,4.60005,2470.507,2021-10-18T12:01:14Z
2021-10-18T10:02:53Z,42.805,6.029,13.2986,4.60005,2470.483,2021-10-18T12:04:17Z
2021-10-18T10:05:56Z,42.805,6.029,13.2987,4.60005,2470.483,2021-10-18T12:07:20Z
2021-10-18T10:09:00Z,42.805,6.029,13.2985,4.60004,2470.52,2021-10-18T12:10:23Z
2021-10-18T10:12:03Z,42.805,6.029,13.2987,4.60005,2470.46,2021-10-18T12:13:26Z
2021-10-18T10:15:06Z,42.805,6.029,13.2990,4.60006,2470.483,2021-10-18T12:16:30Z
2021-10-18T10:18:09Z,42.805,6.029,13.2988,4.60006,2470.497,2021-10-18T12:19:33Z
2021-10-18T10:21:12Z,42.805,6.029,13.2988,4.60005,2470.497,2021-10-18T12:22:36Z
2021-10-18T10:24:15Z,42.805,6.029,13.2990,4.60005,2470.474,2021-10-18T12:25:39Z
2021-10-18T10:27:18Z,42.805,6.029,13.2985,4.60005,2470.483,2021-10-18T12:28:42Z
2021-10-18T10:30:21Z,42.805,6.029,13.2989,4.60006,2470.46,2021-10-18T12:31:45Z
2021-10-18T10:33:25Z,42.805,6.029,13.2989,4.60007,2470.483,2021-10-18T12:34:48Z
2021-10-18T10:36:28Z,42.805,6.029,13.2984,4.60006,2470.46,2021-10-18T12:37:51Z
2021-10-18T10:39:31Z,42.805,6.029,13.2988,4.60004,2470.46,2021-10-18T12:40:55Z
2021-10-18T10:42:34Z,42.805,6.029,13.2989,4.60005,2470.474,2021-10-18T12:43:58Z
2021-10-18T10:45:37Z,42.805,6.029,13.2986,4.60004,2470.47,2021-10-18T12:47:01Z
2021-10-18T10:48:40Z,42.805,6.029,13.2986,4.60004,2470.497,2021-10-18T12:50:04Z
2021-10-18T10:51:43Z,42.805,6.029,13.2990,4.60005,2470.45,2021-10-18T12:53:07Z
2021-10-18T10:54:47Z,42.805,6.029,13.2986,4.60004,2470.46,2021-10-18T12:56:10Z
2021-10-18T10:57:50Z,42.805,6.029,13.2991,4.60003,2470.437,2021-10-18T12:59:13Z
2021-10-18T11:00:53Z,42.805,6.029,13.2987,4.60005,2470.423,2021-10-18T13:02:16Z
2021-10-18T11:03:56Z,42.805,6.029,13.2988,4.60004,2470.437,2021-10-18T13:05:20Z
2021-10-18T11:06:59Z,42.805,6.029,13.2992,4.60004,2470.437,2021-10-18T13:08:23Z
2021-10-18T11:10:02Z,42.805,6.029,13.2988,4.60003,2470.413,2021-10-18T13:11:26Z
2021-10-18T11:13:05Z,42.805,6.029,13.2987,4.60004,2470.474,2021-10-18T13:14:29Z
2021-10-18T11:16:08Z,42.805,6.029,13.2986,4.60003,2470.46,2021-10-18T13:17:32Z
2021-10-18T11:19:12Z,42.805,6.029,13.2990,4.60004,2470.437,2021-10-18T13:20:35Z
2021-10-18T11:22:15Z,42.805,6.029,13.2989,4.60003,2470.437,2021-10-18T13:23:38Z
2021-10-18T11:25:18Z,42.805,6.029,13.2989,4.60004,2470.45,2021-10-18T13:26:41Z
2021-10-18T11:28:21Z,42.805,6.029,13.2986,4.60003,2470.45,2021-10-18T13:29:45Z
2021-10-18T11:31:24Z,42.805,6.029,13.2985,4.60005,2470.474,2021-10-18T13:32:48Z
2021-10-18T11:34:27Z,42.805,6.029,13.2987,4.60004,2470.46,2021-10-18T13:35:51Z
2021-10-18T11:37:30Z,42.805,6.029,13.2986,4.60003,2470.46,2021-10-18T13:38:54Z
2021-10-18T11:40:33Z,42.805,6.029,13.2988,4.60005,2470.46,2021-10-18T13:41:57Z
2021-10-18T11:43:37Z,42.805,6.029,13.2986,4.60003,2470.46,2021-10-18T13:45:00Z
2021-10-18T11:46:40Z,42.805,6.029,13.2990,4.60004,2470.474,2021-10-18T13:48:03Z
2021-10-18T11:49:43Z,42.805,6.029,13.2986,4.60005,2470.474,2021-10-18T13:51:06Z
2021-10-18T11:52:46Z,42.805,6.029,13.2989,4.60006,2470.437,2021-10-18T13:54:10Z
2021-10-18T11:55:49Z,42.805,6.029,13.2988,4.60004,2470.45,2021-10-18T13:57:13Z
2021-10-18T11:58:52Z,42.805,6.029,13.2987,4.60004,2470.413,2021-10-18T14:00:16Z
2021-10-18T12:01:55Z,42.805,6.029,13.2986,4.60006,2470.437,2021-10-18T14:03:19Z
2021-10-18T12:04:58Z,42.805,6.029,13.2985,4.60004,2470.45,2021-10-18T14:06:22Z
2021-10-18T12:08:02Z,42.805,6.029,13.2988,4.60003,2470.413,2021-10-18T14:09:25Z
2021-10-18T12:11:05Z,42.805,6.029,13.2988,4.60006,2470.46,2021-10-18T14:12:28Z
2021-10-18T12:14:08Z,42.805,6.029,13.2986,4.60004,2470.413,2021-10-18T14:15:31Z
2021-10-18T12:17:11Z,42.805,6.029,13.2985,4.60003,2470.45,2021-10-18T14:18:35Z
2021-10-18T12:20:14Z,42.805,6.029,13.2986,4.60005,2470.437,2021-10-18T14:21:38Z
2021-10-18T12:23:17Z,42.805,6.029,13.2990,4.60005,2470.437,2021-10-18T14:24:41Z
2021-10-18T12:26:20Z,42.805,6.029,13.2987,4.60003,2470.46,2021-10-18T14:27:44Z
2021-10-18T12:29:23Z,42.805,6.029,13.2989,4.60006,2470.437,2021-10-18T14:30:47Z
2021-10-18T12:32:27Z,42.805,6.029,13.2987,4.60003,2470.437,2021-10-18T14:33:50Z
2021-10-18T12:35:30Z,42.805,6.029,13.2986,4.60006,2470.427,2021-10-18T14:36:53Z
2021-10-18T12:38:33Z,42.805,6.029,13.2990,4.60003,2470.437,2021-10-18T14:39:57Z
2021-10-18T12:41:36Z,42.805,6.029,13.2987,4.60006,2470.45,2021-10-18T14:43:00Z
2021-10-18T12:44:39Z,42.805,6.029,13.2987,4.60003,2470.474,2021-10-18T14:46:03Z
2021-10-18T12:47:42Z,42.805,6.029,13.2988,4.60005,2470.437,2021-10-18T14:49:06Z
2021-10-18T12:50:45Z,42.805,6.029,13.2987,4.60003,2470.413,2021-10-18T14:52:09Z
2021-10-18T12:53:48Z,42.805,6.029,13.2983,4.60004,2470.45,2021-10-18T14:55:12Z
2021-10-18T12:56:52Z,42.805,6.029,13.2988,4.60003,2470.46,2021-10-18T14:58:15Z
2021-10-18T12:59:55Z,42.805,6.029,13.2986,4.60004,2470.45,2021-10-18T15:01:18Z
2021-10-18T13:02:58Z,42.805,6.029,13.2990,4.60004,2470.413,2021-10-18T15:04:22Z
2021-10-18T13:06:01Z,42.805,6.029,13.2987,4.60003,2470.437,2021-10-18T15:07:25Z
2021-10-18T13:09:04Z,42.805,6.029,13.2986,4.60006,2470.46,2021-10-18T15:10:28Z
2021-10-18T13:12:07Z,42.805,6.029,13.2987,4.60006,2470.474,2021-10-18T15:13:31Z
2021-10-18T13:15:10Z,42.805,6.029,13.2984,4.60004,2470.46,2021-10-18T15:16:34Z
2021-10-18T13:18:13Z,42.805,6.029,13.2987,4.60004,2470.45,2021-10-18T15:19:37Z
2021-10-18T13:21:17Z,42.805,6.029,13.2986,4.60004,2470.52,2021-10-18T15:22:40Z
2021-10-18T13:24:20Z,42.805,6.029,13.2987,4.60005,2470.483,2021-10-18T15:25:43Z
2021-10-18T13:27:23Z,42.805,6.029,13.2986,4.60003,2470.46,2021-10-18T15:28:47Z
2021-10-18T13:30:26Z,42.805,6.029,13.2990,4.60005,2470.413,2021-10-18T15:31:50Z
2021-10-18T13:33:29Z,42.805,6.029,13.2991,4.60003,2470.46,2021-10-18T15:34:53Z
2021-10-18T13:36:32Z,42.805,6.029,13.2984,4.60003,2470.46,2021-10-18T15:37:56Z
2021-10-18T13:39:35Z,42.805,6.029,13.2983,4.60003,2470.413,2021-10-18T15:40:59Z
2021-10-18T13:42:39Z,42.805,6.029,13.2990,4.60003,2470.474,2021-10-18T15:44:02Z
2021-10-18T13:45:42Z,42.805,6.029,13.2991,4.60005,2470.483,2021-10-18T15:47:05Z
2021-10-18T13:48:45Z,42.805,6.029,13.2986,4.60004,2470.437,2021-10-18T15:50:08Z
2021-10-18T13:51:48Z,42.805,6.029,13.2986,4.60004,2470.46,2021-10-18T15:53:12Z
2021-10-18T13:54:51Z,42.805,6.029,13.2989,4.60003,2470.483,2021-10-18T15:56:15Z
2021-10-18T13:57:54Z,42.805,6.029,13.2990,4.60003,2470.474,2021-10-18T15:59:18Z
2021-10-18T14:00:57Z,42.805,6.029,13.2986,4.60005,2470.423,2021-10-18T16:02:21Z
2021-10-18T14:04:00Z,42.805,6.029,13.2989,4.60003,2470.46,2021-10-18T16:05:24Z
2021-10-18T14:07:04Z,42.805,6.029,13.2986,4.60004,2470.483,2021-10-18T16:08:27Z
2021-10-18T14:10:07Z,42.805,6.029,13.2986,4.60005,2470.474,2021-10-18T16:11:30Z
2021-10-18T14:13:10Z,42.805,6.029,13.2983,4.60004,2470.52,2021-10-18T16:14:33Z
2021-10-18T14:16:13Z,42.805,6.029,13.2990,4.60003,2470.437,2021-10-18T16:17:37Z
2021-10-18T14:19:16Z,42.805,6.029,13.2987,4.60005,2470.52,2021-10-18T16:20:40Z
2021-10-18T14:22:19Z,42.805,6.029,13.2988,4.60004,2470.437,2021-10-18T16:23:43Z
2021-10-18T14:25:22Z,42.805,6.029,13.2990,4.60005,2470.483,2021-10-18T16:26:46Z
2021-10-18T14:28:25Z,42.805,6.029,13.2987,4.60006,2470.474,2021-10-18T16:29:49Z
2021-10-18T14:31:29Z,42.805,6.029,13.2986,4.60003,2470.483,2021-10-18T16:32:52Z
2021-10-18T14:34:32Z,42.805,6.029,13.2991,4.60004,2470.507,2021-10-18T16:35:55Z
2021-10-18T14:37:35Z,42.805,6.029,13.2987,4.60004,2470.52,2021-10-18T16:38:58Z
2021-10-18T14:40:38Z,42.805,6.029,13.2989,4.60006,2470.52,2021-10-18T16:42:02Z
2021-10-18T14:43:41Z,42.805,6.029,13.2990,4.60004,2470.53,2021-10-18T16:45:05Z
2021-10-18T14:46:44Z,42.805,6.029,13.2988,4.60006,2470.52,2021-10-18T16:48:08Z
2021-10-18T14:49:47Z,42.805,6.029,13.2985,4.60004,2470.516,2021-10-18T16:51:11Z
2021-10-18T14:52:50Z,42.805,6.029,13.2990,4.60004,2470.497,2021-10-18T16:54:14Z
2021-10-18T14:55:54Z,42.805,6.029,13.2983,4.60003,2470.53,2021-10-18T16:57:17Z
2021-10-18T14:58:57Z,42.805,6.029,13.2990,4.60004,2470.507,2021-10-18T17:00:20Z
2021-10-18T15:02:00Z,42.805,6.029,13.2985,4.60005,2470.544,2021-10-18T17:03:23Z